SHIJIAN-30B

Last updated on Thu Dec 18 2025 00:02:05 GMT+0000 (Coordinated Universal Time)

1 66546U 25266B 25351.70385152 .00010930 00000+0 58386-3 0 9990 2 66546 51.7977 309.6156 0010733 17.3490 342.7851 15.15540501 4330
UTC large
Height (km)
Speed (km/s)
/
Latitude / Longitude
Inclination (degrees)
Orbital Period (minutes)
Azimuth
Elevation
Range (km)
Doppler Factor

Next 0 passes for location: London (51.5072 / 0.1276)

Sorry there are no passes over London.